Regional Weather Roundup
Issued by NWS

Home | Current Version | Previous Version | Text Only | Print | Product List | Glossary Off
Versions: 1 2 3 4 5 6 7 8 9 10 11 12 13 14 15 16 17 18 19 20 21 22 23 24 25 26 27 28 29 30 31 32 33 34 35 36 37 38 39 40 41 42 43 44 45 46 47 48 49 50

000
ASUS43 KDMX 041007
RWRIA

WEATHER ROUNDUP FOR IOWA
NATIONAL WEATHER SERVICE DES MOINES IA
500 AM CDT FRI SEP 04 2015

NOTE: "FAIR" INDICATES FEW OR NO CLOUDS BELOW 12,000 FEET WITH NO
SIGNIFICANT WEATHER AND/OR OBSTRUCTIONS TO VISIBILITY.

* - THESE STATIONS ARE NOT NWS STATIONS...THUS NOT UNDER NWS
QUALITY CONTROL.  THEY ALSO DO NOT REPORT WEATHER SUCH
AS PRECIPITATION OR FOG.

IAZ001>003-012>014-020>022-031>034-043>046-041100-
   NORTHWEST IOWA

CITY           SKY/WX    TMP DP  RH WIND       PRES   REMARKS
CARROLL *      CLEAR     70  68  94 S8        29.90S
CHEROKEE *     CLEAR     70  70 100 S3        29.87S
DENISON *      CLEAR     72  68  88 S13       29.87R
LE MARS *      CLEAR     73  68  83 SE8       29.85R
ORANGE CITY *  CLEAR     72  70  94 S5        29.85R
SHELDON *      CLEAR     72  68  88 S8        29.84S
SIOUX CITY     CLEAR     72  66  81 SE9       29.83R
SPENCER        FOG       71  67  87 SE8       29.88S VSB 1/2
STORM LAKE *   CLEAR     70  68  94 S10       29.89F
$$

IAZ055>058-069>071-079>083-090>094-041100-
   SOUTHWEST IOWA

CITY           SKY/WX    TMP DP  RH WIND       PRES   REMARKS
ATLANTIC *     CLEAR     72  68  88 S6        29.91R
AUDUBON *      CLEAR     70  66  88 S5        29.92S
CLARINDA *     CLEAR     70  68  94 CALM      29.92S
COUNCIL BLFS * CLEAR     72  68  88 S9G16     29.89R
CRESTON *      CLEAR     70  66  88 S8        29.95S
LAMONI         PTCLDY    71  67  87 S6        29.94F
RED OAK *      CLEAR     72  70  94 S6        29.90S
SHENANDOAH *   CLEAR     73  70  88 VRB6G12   29.90R
$$

IAZ047>049-059>061-072>074-084-041100-
   CENTRAL IOWA

CITY           SKY/WX    TMP DP  RH WIND       PRES   REMARKS
AMES           CLEAR     68  66  93 CALM      29.92F
ANKENY *       CLEAR     70  68  94 CALM      29.92S
CHARITON *     CLEAR     68  66  94 S7        29.94F
DES MOINES     PTCLDY    72  66  81 S7        29.91F
GRINNELL*      CLEAR     70  66  88 S5        29.95S
KNOXVILLE *    CLEAR     70  66  88 S6        29.92S
MARSHALLTOWN   CLEAR     69  67  93 E7        29.93R
PELLA *        PTCLDY    70  70 100 SE3       29.95S
PERRY *          N/A     70  68  94 S6        29.91S
$$

IAZ004>006-015-016-023>025-035-036-041100-
   NORTH CENTRAL IOWA

CITY           SKY/WX    TMP DP  RH WIND       PRES   REMARKS
ALGONA *       CLEAR     73  68  83 S9        29.91S
CLARION *      CLEAR     70  68  94 S8        29.92S
ESTHERVILLE    PTCLDY    70  69  97 S8        29.89S
FORT DODGE *   CLEAR     73  66  78 SE7       29.92S
MASON CITY     CLEAR     68  68 100 S3        29.94F FOG
FOREST CITY *  CLEAR     68  68 100 CALM      29.93S
IOWA FALLS *     N/A     70  68  94 S3        29.94S
$$

IAZ007>011-017>019-026>030-037>042-050>054-066-041100-
   NORTHEAST IOWA

CITY           SKY/WX    TMP DP  RH WIND       PRES   REMARKS
CEDAR RAPIDS   MOCLDY    69  69 100 S5        29.94S
CHARLES CITY * CLEAR     70  70 100 SE6       29.95S
CLINTON *      CLEAR     70  68  94 E7        29.98S
DECORAH *      CLOUDY    72  72 100 VRB7G13   29.96F
DUBUQUE        FOG       71  70  96 E6        29.98S VSB 1/2
MONTICELLO *   CLEAR     68  66  94 CALM      29.95S FOG
OELWEIN *        N/A    N/A N/A N/A MISG        N/A
WATERLOO       PTCLDY    69  67  93 NE7       29.93R
$$

IAZ064-065-067-068-078-041100-
   EAST CENTRAL IOWA

CITY           SKY/WX    TMP DP  RH WIND       PRES   REMARKS
DAVENPORT      CLEAR     68  67  96 CALM      29.96S
IOWA CITY      MOCLDY    72  70  93 CALM      29.96R
MT. PLEASANT * PTCLDY    72  68  88 CALM      29.95F
MUSCATINE *    CLEAR     68  66  94 CALM      29.95S FOG
QUAD CITIES    CLEAR     70  67  90 CALM      29.95S
$$

IAZ062-063-075>077-085>089-095>099-041100-
   SOUTHEAST IOWA

CITY           SKY/WX    TMP DP  RH WIND       PRES   REMARKS
BURLINGTON     PTCLDY    70  68  93 CALM      29.96S
FAIRFIELD *    CLOUDY    72  66  83 S3        29.95S
FORT MADISON * CLEAR     72  70  94 SW5       29.97R
KEOKUK *         N/A     72  68  88 CALM      29.95S
OSKALOOSA *      N/A     68  66  94 S5        29.95S
CENTERVILLE *  CLEAR     68  66  94 S5        29.97S
OTTUMWA        CLEAR     69  68  96 S7        29.93S
WASHINGTON *     N/A    N/A N/A N/A MISG        N/A
$$

ABBREVIATIONS USED IN REMARKS
   TC - TEMPERATURES IN CELSIUS
  WCI - WIND CHILL INDEX
   HX - HEAT INDEX
  VSB - VISIBILITY
$$



USA.gov is the U.S. government's official web portal to all federal, state and local government web resources and services.